Regional Weather Roundup
Issued by NWS

Home | Current Version | Previous Version | Graphics & Text | Print | Product List | Glossary On
Versions: 1 2 3 4 5 6 7 8 9 10 11 12 13 14 15 16 17 18 19 20 21 22 23 24 25 26 27 28 29 30 31 32 33 34 35 36 37 38 39 40 41 42 43 44 45 46 47 48 49 50
151
ASUS43 KIND 192159
RWRIN

WEATHER ROUNDUP FOR INDIANA
NATIONAL WEATHER SERVICE INDIANAPOLIS IN
500 PM EST SUN FEB 19 2017

NOTE: "FAIR" INDICATES FEW OR NO CLOUDS BELOW 12,000 FEET WITH NO
SIGNIFICANT WEATHER AND/OR OBSTRUCTIONS TO VISIBILITY.

* - STATION DOES NOT REPORT WEATHER SUCH AS PRECIPITATION OR FOG.

+ - STATION NOT QUALITY CONTROLLED BY THE NATIONAL WEATHER SERVICE.
    USE DATA WITH CAUTION...ESPECIALLY DEWPOINT AND RELATIVE
    HUMIDITY OBSERVATIONS.

INZ001>003-010>013-019-020-192300-
NORTHWEST INDIANA

CITY           SKY/WX    TMP DP  RH WIND       PRES   REMARKS
GARY /AIRPORT/ MOSUNNY   57  28  33 NE3       30.07S
KNOX *+        SUNNY     63   0   8 CALM      30.07S
MONTICELLO +   SUNNY     63  44  49 W5        30.07S

$$

LMZ046-743>745-192300-
SOUTHERN LAKE MICHIGAN

STATION/POSITION TIME  TEMP    WIND        PRES    WAVE
                       AIR SEA DIR/SP/G            HT
                 (UTC) (F)     (DEG/KT/KT) (MB)    (FT)
BURNS HARBOR     2140   43      80/  9/ 11 1018.6S
MICHIGAN CITY    2130   42      30/ 10/ 10   N/A

$$

INZ004-005-014>016-021>024-192300-
NORTH CENTRAL INDIANA

CITY           SKY/WX    TMP DP  RH WIND       PRES   REMARKS
ELKHART        SUNNY     63  25  23 N6        30.06S
GOSHEN         MOSUNNY   63  30  28 NW7       30.06S
SOUTH BEND     SUNNY     62  25  24 NW7       30.08R
WARSAW +       SUNNY     63  34  34 W3        30.07S

$$

INZ006>009-017-018-025>027-192300-
NORTHEAST INDIANA

CITY           SKY/WX    TMP DP  RH WIND       PRES   REMARKS
ANGOLA *+      SUNNY     63  39  42 W5        30.06S
FORT WAYNE     MOSUNNY   63  33  32 W9        30.08R
KENDALLVILLE + MOSUNNY   62  36  38 W8        30.07S

$$

INZ028-029-035-036-043>045-051>053-192300-
WEST CENTRAL INDIANA

CITY           SKY/WX    TMP DP  RH WIND       PRES   REMARKS
LAFAYETTE      SUNNY     63  43  48 CALM      30.07F
TERRE HAUTE    SUNNY     64  47  53 S7        30.08S

$$

INZ030>032-037>040-046>048-054>057-064-065-192300-
CENTRAL INDIANA

CITY           SKY/WX    TMP DP  RH WIND       PRES   REMARKS
CP ATTERBURY + SUNNY     63  46  55 E7        30.10S
COLUMBUS       SUNNY     59  48  67 SE6       30.11R
FRANKFORT +    SUNNY     66  47  49 NW3       30.10S
GREENWOOD *+   SUNNY     63  47  56 S3        30.10R
INDIANAPOLIS   MOSUNNY   64  43  46 W5        30.09R
-EAGLE CREEK   SUNNY     64  43  46 SW5       30.08R
KOKOMO +       SUNNY     64  44  48 W5        30.09S
MT COMFORT *+  SUNNY     64  43  45 S3        30.09S
SHELBYVILLE    SUNNY     60  45  57 VRB6      30.10R

$$

INZ033-034-041-042-049-050-058-059-192300-
EAST CENTRAL INDIANA

CITY           SKY/WX    TMP DP  RH WIND       PRES   REMARKS
MUNCIE         SUNNY     65  43  44 W5        30.08R

$$

INZ060-061-067>069-081>083-085>088-192300-
SOUTHWEST INDIANA

CITY           SKY/WX    TMP DP  RH WIND       PRES   REMARKS
EVANSVILLE     MOSUNNY   58  49  72 SE5       30.12F
HUNTINGBURG *+ CLOUDY    55  48  76 S7        30.13S

$$

INZ062-063-066-070>080-084-089>092-192300-
SOUTH CENTRAL AND SOUTHEAST INDIANA

CITY           SKY/WX    TMP DP  RH WIND       PRES   REMARKS
BLOOMINGTON    SUNNY     62  46  55 VRB3      30.09S
MADISON *+     SUNNY     59  46  63 S6        30.13S
SEYMOUR +      SUNNY     64  48  55 CALM      30.10S

$$





USA.gov is the U.S. government's official web portal to all federal, state and local government web resources and services.